Regional Weather Roundup
Issued by NWS Glasgow, MT

Home | Current Version | Previous Version | Text Only | Print | Product List | Glossary On
Versions: 1 2 3 4 5 6 7 8 9 10 11 12 13 14 15 16 17 18 19 20 21 22 23 24 25 26 27 28 29 30 31 32 33 34 35 36 37 38 39 40 41 42 43 44 45 46 47 48 49 50
951
ASUS45 KGGW 090915
RWRGGW
HOURLY REGIONAL WEATHER ROUNDUP FOR NORTHEAST MONTANA
NATIONAL WEATHER SERVICE GLASGOW MONTANA
200 AM MST FRI DEC 09 2016

NOTE: "FAIR" INDICATES FEW OR NO CLOUDS BELOW 12,000 FEET WITH NO
SIGNIFICANT WEATHER AND/OR OBSTRUCTIONS TO VISISBILITY.

NORTHEAST MONTANA


CITY           SKY/WX    TMP DP  RH WIND       PRES   REMARKS
GLASGOW        CLOUDY    -2  -7  79 VRB6      30.49R
PLENTYWOOD       N/A     -9 -13  83 W2          N/A
WOLF POINT     CLOUDY   -11 -18  71 E5        30.55S
JORDAN           N/A     -3  -8  79 E5        30.43S
WINNETT          N/A     -3  -7  82 NE2         N/A
SIDNEY         CLOUDY   -16 -21  78 NW5       30.56S
GLENDIVE       CLOUDY   -13 -18  78 N8        30.48S
SCOBEY           N/A     -6 -16  61 CALM      30.44S

FORT PECK REPORTS


CITY           SKY/WX    TMP DP  RH WIND       PRES   REMARKS
FORT PECK        N/A     -4  -7  87 NE9         N/A
THE PINES        N/A      4   1  88 E2          N/A

SOUTHEAST MONTANA


CITY           SKY/WX    TMP DP  RH WIND       PRES   REMARKS
BILLINGS       LGT SNOW   3  -2  79 NE8       30.25R
MILES CITY     CLOUDY    -5 -10  79 NE10      30.41S WCI -23
BAKER          CLOUDY   -12 -17  78 SE7       30.39F
LIVINGSTON     LGT SNOW   4  -1  80 E9        30.15R

CENTRAL MONTANA


CITY           SKY/WX    TMP DP  RH WIND       PRES   REMARKS
HAVRE          CLOUDY    -1  -5  82 NE6       30.44F
LEWISTOWN      CLOUDY    -3  -8  79 SE8       30.23R
GREAT FALLS    CLOUDY    -3  -7  82 N3        30.31R
CUT BANK       CLOUDY    -5  -8  87 E5        30.28S
HELENA         CLOUDY     0  -6  76 W6        30.23F
BUTTE          FLURRIES   6   0  76 S10       30.01S WCI  -9
BOZEMAN        LGT SNOW   5   1  83 W8        30.16R FOG

WESTERN MONTANA


CITY           SKY/WX    TMP DP  RH WIND       PRES   REMARKS
MISSOULA       CLOUDY    13   4  67 SE13      30.15F WCI  -2
KALISPELL      NOT AVBL

NORTH DAKOTA


CITY           SKY/WX    TMP DP  RH WIND       PRES   REMARKS
WILLISTON      CLOUDY   -15 -20  78 CALM      30.56S
DICKINSON      CLOUDY   -18 -23  77 CALM      30.44S
MINOT          CLOUDY   -10 -14  82 SW8       30.54F
BISMARCK       CLOUDY    -9 -14  78 SW3       30.58F

SOUTHERN SASKATCHEWAN


CITY           SKY/WX    TMP DP  RH WIND       PRES   REMARKS
REGINA         CLEAR    -17 -22  76 NW5       30.56S
ESTEVAN        PTCLDY   -20 -24  83 W8        30.54S
SWIFT CURRENT  FLURRIES  -6  -8  92 N5        30.46S





USA.gov is the U.S. government's official web portal to all federal, state and local government web resources and services.